Weather History for KOXC - March, 2013

Change the Weather History Date:

Tuesday, March 5, 2013

  Actual Average Record
Temperature  
Mean Temperature 36 °F -  
Max Temperature 44 °F 38 °F 53 °F (2008)
Min Temperature 28 °F 23 °F 12 °F (2005)
Degree Days  
Heating Degree Days 29    
Moisture  
Dew Point 22 °F    
Average Humidity 59    
Maximum Humidity 65    
Minimum Humidity 46    
Precipitation  
Precipitation 0.00 in - - ()
Sea Level Pressure  
Sea Level Pressure 29.96 in    
Wind  
Wind Speed 9 mph (NNE)    
Max Wind Speed 15 mph    
Max Gust Speed 26 mph    
Visibility 10 miles    
Events      
Averages and records for this station are not official NWS values.
T = Trace of Precipitation, MM = Missing Value Source: NWS Daily Summary

Daily Weather History Graph

Daily Weather History Graph

Search for Another Location

Airport or City:

Trip Planner

Search our weather history database for the weather conditions in past years. The results will help you decide how hot, cold, wet, or windy it might be!

Date:

Astronomy

Mar. 05, 2013 Rise Set
Actual Time 6:20 AM EST 5:48 PM EST
Civil Twilight 5:52 AM EST 6:15 PM EST
Nautical Twilight 5:20 AM EST 6:47 PM EST
Astronomical Twilight 4:48 AM EST 7:20 PM EST
Moon 1:33 AM EST (3/5) 11:21 AM EST (3/5)
Length of Visible Light 12h 23m
Length of Day
11h 27m
Last Quarter, 41% of the Moon is Illuminated
Mar 5
Last Quarter
Mar 11
New
Mar 19
First Quarter
Mar 27
Full
Apr 3
Last Quarter

Hourly Weather History & Observations

Time (EST) Temp. Windchill Dew Point Humidity Pressure Visibility Wind Dir Wind Speed Gust Speed Precip Events Conditions
12:35 AM 28.4 °F 19.1 °F 17.6 °F 64% 29.85 in 10.0 mi NW 10.4 mph 26.5 mph N/A   Overcast
12:55 AM 28.4 °F 19.1 °F 17.6 °F 64% 29.86 in 10.0 mi NW 10.4 mph 23.0 mph N/A   Overcast
1:15 AM 28.4 °F 18.0 °F 17.6 °F 64% 29.86 in 10.0 mi NNW 12.7 mph 19.6 mph N/A   Mostly Cloudy
2:35 AM 28.4 °F 20.4 °F 17.6 °F 64% 29.87 in 10.0 mi NNW 8.1 mph 16.1 mph N/A   Clear
4:35 AM 28.4 °F 20.4 °F 17.6 °F 64% 29.91 in 10.0 mi NNW 8.1 mph - N/A   Clear
4:55 AM 28.4 °F 20.4 °F 17.6 °F 64% 29.91 in 10.0 mi NNW 8.1 mph - N/A   Clear
5:15 AM 28.4 °F 20.4 °F 17.6 °F 64% 29.92 in 10.0 mi NNW 8.1 mph - N/A   Clear
5:35 AM 28.4 °F 21.2 °F 17.6 °F 64% 29.92 in 10.0 mi NW 6.9 mph - N/A   Mostly Cloudy
5:45 AM 28.4 °F 21.2 °F 17.6 °F 64% 29.92 in 10.0 mi NNW 6.9 mph - N/A   Scattered Clouds
6:45 AM 28.4 °F 17.5 °F 17.6 °F 64% 29.94 in 10.0 mi North 13.8 mph - N/A   Partly Cloudy
8:45 AM 32.0 °F 24.2 °F 21.2 °F 64% 29.97 in 10.0 mi North 9.2 mph 20.7 mph N/A   Partly Cloudy
9:45 AM 35.6 °F 26.6 °F 21.2 °F 56% 29.97 in 10.0 mi North 13.8 mph - N/A   Partly Cloudy
10:45 AM 35.6 °F 26.2 °F 21.2 °F 56% 29.97 in 10.0 mi North 15.0 mph - N/A   Partly Cloudy
11:45 AM 37.4 °F 29.8 °F 23.0 °F 56% 29.97 in 10.0 mi North 11.5 mph 18.4 mph N/A   Clear
12:45 PM 39.2 °F 32.0 °F 24.8 °F 56% 29.96 in 10.0 mi NNE 11.5 mph - N/A   Clear
1:45 PM 41.0 °F 34.3 °F 24.8 °F 53% 29.96 in 10.0 mi North 11.5 mph - N/A   Clear
2:45 PM 42.8 °F 36.6 °F 24.8 °F 49% 29.97 in 10.0 mi North 11.5 mph - N/A   Clear
3:45 PM 42.8 °F 38.0 °F 24.8 °F 49% 29.97 in 10.0 mi North 8.1 mph - N/A   Partly Cloudy
4:45 PM 44.6 °F 40.7 °F 24.8 °F 46% 29.98 in 10.0 mi NE 6.9 mph - N/A   Scattered Clouds
5:55 PM 41.0 °F 38.0 °F 24.8 °F 53% 29.99 in 10.0 mi East 4.6 mph - N/A   Mostly Cloudy
6:50 PM 41.0 °F - 24.8 °F 53% 30.01 in 10.0 mi Calm Calm - N/A   Mostly Cloudy
7:45 PM 39.2 °F - 24.8 °F 56% 30.01 in 10.0 mi Calm Calm - N/A   Overcast
8:45 PM 39.2 °F - 24.8 °F 56% 30.02 in 10.0 mi Calm Calm - N/A   Overcast
9:35 PM 39.2 °F 35.9 °F 24.8 °F 56% 30.02 in 10.0 mi ENE 4.6 mph - N/A   Overcast
9:55 PM 39.2 °F 35.9 °F 24.8 °F 56% 30.02 in 10.0 mi East 4.6 mph - N/A   Overcast
10:15 PM 39.2 °F 37.0 °F 26.6 °F 61% 30.02 in 10.0 mi East 3.5 mph - N/A   Overcast
10:35 PM 37.4 °F 34.9 °F 26.6 °F 65% 30.02 in 10.0 mi East 3.5 mph - N/A   Overcast
10:55 PM 37.4 °F 33.8 °F 26.6 °F 65% 30.01 in 10.0 mi East 4.6 mph - N/A   Overcast
11:15 PM 37.4 °F 32.8 °F 26.6 °F 65% 30.01 in 10.0 mi ESE 5.8 mph - N/A   Overcast
11:55 PM 37.4 °F 33.8 °F 24.8 °F 60% 30.01 in 10.0 mi East 4.6 mph - N/A   Overcast